Temperature
25 25 25 25 28 29 30 33 34 32 31 32 31 32 30 28 27 24 24 24 23 22 22 21 20 20 19 19 19 19 19 19 18 18 18 18 18 18 18 18 18 18 18 18 18 18 18 18 19
25 24 25 27 28 29 31 33 32 30 30 31 31 31 30 28 26 25 24 23 22 22 21 21 20 20 19 19 19 19 19 18 18 18 18 18 18 18 18 18 18 18 18 18 18 18 18 18 18
24 24 26 29 29 30 31 32 31 31 31 32 31 31 29 28 26 24 23 22 21 20 21 21 20 20 19 19 19 19 19 18 18 18 18 18 18 18 18 18 18 18 18 18 18 18 18 18 18
23 25 27 29 30 32 32 32 33 32 32 32 31 30 28 27 26 23 23 22 21 20 21 21 20 20 19 19 19 18 18 18 18 18 18 18 18 18 18 17 18 18 18 18 18 18 18 18 18
24 27 28 29 31 33 34 33 33 33 32 32 31 29 27 26 25 23 23 22 21 20 21 21 21 20 20 19 19 18 18 18 18 18 18 17 17 17 17 17 17 17 18 18 18 18 18 18 18
26 29 29 30 32 34 34 33 33 32 32 32 31 29 27 26 24 23 23 23 22 21 21 21 21 20 20 19 18 18 18 18 18 18 18 17 17 17 17 17 17 17 18 18 18 18 18 18 18
27 29 29 31 32 33 34 33 32 31 31 31 31 29 27 26 25 24 24 23 23 21 21 21 21 20 20 19 18 18 18 18 17 17 17 17 17 17 17 17 17 17 17 17 18 18 18 18 18
27 29 29 31 31 33 34 33 32 30 29 30 31 30 28 26 25 25 24 24 23 22 21 21 20 20 20 19 19 18 18 18 18 17 17 17 17 17 17 17 17 17 17 17 17 18 18 18 18
27 28 28 31 32 33 34 34 32 30 29 29 30 30 28 26 26 25 25 24 23 22 20 20 19 19 19 19 19 18 18 18 18 17 17 17 17 17 17 17 17 17 17 18 18 18 18 18 18
28 28 30 32 34 34 34 34 32 31 30 30 30 29 27 27 26 26 25 25 23 22 21 20 19 19 18 18 19 18 18 18 17 17 17 17 17 17 17 17 17 18 18 18 18 18 18 18 18
30 29 31 33 33 33 34 34 33 32 31 31 30 28 27 27 27 27 26 25 24 22 22 21 20 20 19 19 19 18 18 18 17 17 17 17 17 17 17 17 17 18 17 17 18 18 18 18 18
30 31 31 32 33 33 33 33 33 33 33 31 29 26 27 27 27 27 27 26 24 23 22 22 21 20 20 20 19 19 18 18 18 17 17 17 17 17 17 17 17 17 17 17 17 18 18 18 18
30 31 31 32 32 32 32 33 33 33 32 31 29 27 27 27 27 27 27 26 24 23 23 22 21 21 20 20 20 20 19 19 18 18 18 17 18 17 18 18 17 17 17 17 17 17 17 17 17
31 31 31 31 32 32 32 33 33 33 33 31 29 28 28 28 28 27 27 26 25 23 23 22 21 20 20 20 20 20 19 19 18 18 18 18 17 17 17 17 17 17 17 17 17 17 17 16 16
31 31 31 32 32 32 32 32 33 33 33 32 31 30 29 29 29 28 27 26 24 23 22 22 21 20 20 20 19 19 19 19 18 18 18 17 17 17 17 17 16 17 16 16 16 16 16 16 16
31 30 29 31 32 32 32 31 33 33 33 33 32 31 31 30 29 28 27 26 24 23 22 21 20 20 20 19 19 19 19 19 18 18 17 17 17 17 17 16 16 16 16 15 15 15 15 15 15
29 28 29 30 32 32 32 31 33 33 33 33 32 32 32 31 30 29 27 26 24 23 22 21 21 20 20 19 19 19 19 18 18 17 17 17 16 16 16 16 16 16 15 15 15 15 15 15 14
28 29 29 30 32 32 32 32 33 33 33 32 32 32 32 31 30 29 27 25 24 22 22 21 20 19 19 18 18 18 18 18 17 17 17 17 16 16 15 15 15 15 14 14 14 14 14 14 13
29 30 30 31 33 32 32 32 32 33 33 32 32 32 32 31 30 29 27 24 22 21 21 20 20 19 18 18 18 18 17 17 16 16 16 16 16 15 15 14 14 14 13 13 13 13 13 13 12
29 29 29 31 32 32 31 31 32 32 32 32 32 31 31 31 30 28 26 24 22 20 20 19 19 18 18 17 17 17 17 16 16 16 16 16 15 15 14 14 13 13 13 12 12 11 11 11 10
29 29 29 30 31 31 31 30 31 31 31 32 32 31 31 31 29 27 26 23 21 20 19 19 18 18 17 17 16 16 16 16 16 16 16 15 15 14 13 13 12 12 11 11 10 10 9 9 9
28 29 29 29 29 29 30 28 30 31 31 31 32 31 31 30 29 27 24 22 20 19 19 18 18 17 17 16 16 16 16 15 15 14 14 14 13 13 12 12 11 11 10 9 9 9 8 8 8
29 30 29 29 28 28 28 28 29 31 31 31 32 32 31 30 29 26 23 20 19 18 18 18 17 17 16 16 15 15 14 14 13 13 13 13 12 12 11 10 10 9 8 8 8 8 7 7 6
29 29 29 28 28 26 27 27 28 30 31 31 32 32 31 29 27 24 21 19 18 17 17 17 17 16 15 15 14 14 13 13 12 12 12 11 11 10 10 9 8 8 7 7 6 6 6 6 6
29 27 26 25 25 26 28 28 28 30 32 32 32 30 29 26 24 21 18 17 17 16 16 16 16 15 14 14 13 13 12 12 12 11 11 11 10 9 9 8 7 7 6 6 6 5 5 5 5
28 27 25 24 25 27 29 28 29 31 32 31 31 29 27 24 21 19 17 16 16 16 16 15 15 14 13 13 12 12 12 11 11 11 10 10 10 9 8 7 7 6 6 5 5 5 5 5 5
27 28 28 27 26 26 27 28 30 31 31 31 30 29 27 24 20 17 16 15 15 15 15 14 13 13 12 12 11 11 11 10 10 10 9 9 9 8 7 6 6 5 5 5 5 5 5 5 5
29 28 27 26 24 24 26 27 28 28 29 29 29 29 25 21 18 16 15 14 14 14 13 12 12 11 11 11 10 10 10 10 9 8 8 8 7 7 6 6 6 5 5 5 5 5 5 5 5
28 27 27 27 26 25 24 26 27 27 28 28 28 27 23 19 17 15 14 13 13 12 11 11 10 10 10 9 9 9 8 8 8 7 7 7 6 6 6 6 6 6 5 5 5 5 5 5 5
28 28 27 25 25 25 25 26 28 27 26 24 24 24 21 18 16 14 13 12 11 11 10 10 9 9 8 8 8 8 7 7 7 7 7 6 6 6 6 6 6 5 5 5 5 5 5 4 4
Wind_Speed
10 13 11 8 7 10 17 15 6 12 11 12 13 11 19 17 10 11 9 19 24 20 19 19 18 17 16 15 15 16 16 17 16 16 14 13 12 12 11 11 10 10 10 11 11 10 9 8 7
10 13 10 7 9 13 15 2 16 14 7 7 9 11 17 16 15 13 13 18 23 20 19 19 18 16 16 15 15 15 15 16 16 15 14 13 12 11 11 10 10 9 9 10 9 9 8 7 6
10 14 8 8 14 15 11 5 15 13 8 7 11 14 14 10 13 12 14 17 19 18 20 21 18 17 15 15 14 14 14 14 14 14 13 12 11 10 10 9 9 9 9 9 8 8 7 6 5
7 8 7 11 17 15 5 5 12 13 8 8 10 12 12 9 11 16 16 17 18 19 20 20 19 17 15 14 13 13 13 13 13 12 11 10 10 9 9 9 9 9 8 8 8 8 7 5 4
10 8 12 16 18 11 8 8 10 12 9 7 12 17 13 15 19 19 17 17 17 19 20 20 19 17 15 14 13 12 11 11 11 10 10 9 8 8 8 8 8 8 8 8 8 8 6 4 2
8 9 13 16 16 7 6 8 8 8 8 8 12 19 14 17 17 17 17 16 18 20 19 19 18 17 16 14 13 12 11 10 10 9 9 8 8 8 8 8 8 8 8 8 7 6 5 3 1
11 12 16 16 15 7 6 8 9 6 4 4 11 18 13 16 17 17 17 16 18 21 18 17 17 16 16 15 14 13 12 11 10 9 9 8 8 8 8 8 8 8 7 7 6 5 4 3 3
12 12 18 17 16 8 8 8 10 10 5 2 3 11 16 18 18 18 16 16 18 19 19 16 18 17 16 15 15 14 13 12 11 10 10 9 9 9 9 10 8 7 7 6 5 5 5 6 6
15 13 17 18 11 4 8 9 9 12 10 8 4 12 22 22 19 18 16 16 15 17 17 17 17 16 17 17 16 15 13 12 12 11 11 10 10 10 10 9 10 9 8 7 7 8 9 9 10
15 15 20 16 7 3 7 9 10 12 14 11 9 20 22 20 19 18 18 18 18 17 15 16 16 15 16 16 15 14 14 14 13 12 13 11 9 10 10 12 12 11 10 9 10 11 11 12 11
19 20 20 16 9 6 6 6 8 11 12 10 7 15 21 19 18 18 18 17 18 17 13 16 15 12 13 12 13 11 11 12 13 13 12 10 10 11 11 10 10 11 11 11 12 12 12 9 2
21 21 21 17 9 6 11 12 9 13 10 10 10 5 12 18 17 17 18 18 19 17 15 16 15 11 10 11 8 8 8 8 7 10 9 8 4 3 5 7 10 9 10 8 6 7 4 2 4
21 21 19 16 12 10 13 17 13 13 8 12 16 20 20 19 17 15 15 17 20 17 13 14 14 9 7 7 5 6 6 7 9 10 7 6 3 1 3 3 4 4 4 3 4 5 6 5 6
19 19 20 19 16 15 16 16 17 16 12 13 14 17 21 20 19 16 15 16 19 17 14 13 14 11 9 6 3 5 6 6 8 7 9 5 5 4 3 2 3 5 8 8 6 6 4 3 4
20 19 18 18 18 18 18 19 20 19 14 13 13 15 21 21 19 18 15 14 16 16 15 13 14 13 10 9 6 5 6 8 6 8 9 5 6 5 3 1 3 5 5 5 5 6 5 4 5
18 19 20 19 19 21 22 21 19 18 17 13 12 14 14 16 20 20 19 16 16 17 16 15 15 16 12 10 8 5 6 7 7 9 9 7 6 4 2 3 5 4 4 5 3 4 5 6 6
19 19 21 22 24 24 23 21 19 17 14 11 11 13 13 13 17 16 18 19 18 16 17 15 13 16 13 10 6 5 5 6 7 9 8 7 5 5 5 5 4 3 3 4 4 5 5 5 5
18 20 22 25 24 25 24 20 16 16 10 12 13 13 12 13 14 15 18 17 15 14 15 13 12 14 12 9 6 6 8 6 6 7 8 9 7 6 5 5 5 5 3 4 4 3 3 4 5
22 23 21 19 21 23 22 20 17 17 13 14 15 14 14 12 10 12 16 16 12 12 13 12 12 12 10 9 8 8 8 7 7 6 9 9 9 8 6 4 3 2 4 3 3 3 5 5 4
22 23 22 18 16 15 14 16 15 16 17 14 16 15 13 11 6 11 18 20 18 15 14 12 11 12 10 8 6 7 8 8 8 7 7 10 9 7 5 5 2 3 2 0 1 1 3 4 5
19 18 18 18 18 19 18 18 17 17 21 23 20 18 18 13 7 9 16 19 19 16 14 12 10 11 9 9 8 8 8 8 6 7 6 6 9 8 7 4 4 4 4 3 3 3 4 4 5
15 15 16 18 17 17 19 19 18 19 23 25 24 23 20 16 11 9 14 16 15 13 11 10 9 9 9 9 10 11 8 8 7 6 5 5 6 6 5 4 4 4 4 3 4 6 4 4 5
14 14 15 16 16 18 19 20 20 19 20 18 18 21 19 15 11 12 15 15 14 12 11 11 11 10 8 8 9 8 8 7 6 7 6 6 5 4 4 5 4 3 2 4 4 3 4 4 5
13 13 14 14 14 19 20 21 22 19 21 18 15 12 9 9 9 15 17 16 14 13 13 12 12 10 8 8 7 8 9 9 9 7 6 4 6 5 5 5 4 1 2 3 2 2 4 2 3
14 12 11 13 15 19 21 21 19 18 18 14 7 1 4 9 16 18 18 16 14 14 13 12 13 11 9 8 8 8 8 8 7 6 5 2 4 6 5 4 2 1 2 2 2 3 4 3 3
16 16 14 14 15 15 13 10 8 8 7 5 2 3 7 13 17 18 16 15 14 13 13 12 12 11 9 9 8 7 7 5 5 3 3 3 5 8 6 3 1 1 2 3 2 4 5 4 3
17 16 17 17 19 18 17 19 18 11 9 8 7 6 6 13 18 19 17 15 14 13 12 12 12 11 10 9 8 7 5 6 7 5 3 5 4 4 4 2 1 1 2 3 3 5 6 5 5
19 16 12 14 15 16 17 17 12 11 10 5 4 3 8 17 19 18 16 14 13 12 11 11 11 10 9 8 6 7 7 7 5 4 6 6 4 4 1 2 2 3 4 4 6 6 7 6 6
15 17 15 15 14 16 15 10 4 5 7 7 6 4 14 21 20 18 15 15 15 14 12 11 10 9 7 6 6 7 5 5 4 4 5 4 3 2 3 3 3 4 5 6 6 7 8 8 8
17 17 16 13 15 16 16 13 6 9 14 17 18 10 15 20 19 18 17 16 15 14 12 10 8 7 7 6 6 5 4 3 2 4 4 3 1 2 3 4 5 6 6 6 6 7 8 7 7
Wind_Direction
244 258 257 273 259 251 258 260 92 69 56 58 45 53 69 57 68 106 125 102 108 114 122 120 117 116 114 112 111 114 118 119 119 119 118 116 114 109 104 99 95 94 95 95 95 94 92 88 82
263 261 263 256 258 260 268 276 88 86 86 97 83 69 76 73 88 111 114 109 114 121 131 125 124 121 119 117 116 118 121 122 122 122 122 120 117 114 111 107 104 101 101 102 102 102 101 98 91
262 266 264 251 248 258 294 89 110 122 153 120 92 71 62 84 100 114 119 120 117 121 122 128 130 127 125 124 123 122 123 124 125 125 124 122 120 117 115 112 110 109 108 108 107 107 106 101 91
249 234 238 249 255 246 220 125 132 137 134 109 100 86 80 83 108 122 133 127 123 124 125 133 134 133 131 129 128 127 127 126 125 125 123 122 120 117 115 114 114 114 115 114 113 112 109 101 87
237 249 240 254 255 246 156 151 144 135 131 114 104 99 91 93 109 126 136 134 136 128 128 137 138 138 137 137 136 135 132 129 127 126 125 123 120 118 116 114 115 117 118 119 121 121 118 112 96
234 240 246 251 259 226 153 145 135 130 137 139 117 108 108 115 125 141 142 146 135 126 129 137 141 143 145 145 145 143 139 136 133 132 131 131 130 128 124 120 119 119 120 123 127 130 130 131 144
248 257 261 268 278 225 163 152 143 145 132 139 128 116 125 134 141 148 149 147 135 129 133 142 145 148 151 151 149 147 144 143 142 143 145 147 147 142 135 129 127 126 127 131 136 143 153 176 217
247 268 274 271 261 225 170 163 150 142 140 263 189 129 134 136 150 149 151 142 137 137 140 145 151 152 155 154 152 151 150 151 152 156 162 163 162 157 151 144 136 138 141 146 156 174 191 209 229
240 253 266 271 255 195 180 173 168 150 151 194 187 125 135 143 152 150 150 145 141 135 139 149 151 156 158 155 153 154 157 160 161 169 177 179 182 168 166 151 150 160 166 172 187 201 211 219 232
231 244 253 273 298 180 203 188 181 170 170 195 155 123 132 147 155 159 158 156 147 138 148 152 150 158 158 151 155 165 170 170 182 179 182 195 197 176 162 158 169 178 182 189 209 217 224 227 228
231 243 263 287 302 310 296 224 202 207 191 190 145 131 141 157 164 167 164 163 151 147 163 152 154 161 154 146 168 172 172 167 190 178 180 187 181 168 162 165 176 192 193 202 211 220 228 225 220
238 247 259 278 296 297 287 278 234 231 219 145 119 146 167 167 173 175 169 165 151 156 172 156 151 159 153 154 165 159 155 168 165 154 175 166 187 185 159 175 182 196 199 198 204 233 211 56 340
240 248 260 269 278 275 270 271 267 240 219 144 151 178 190 179 176 183 173 162 154 159 170 151 150 137 114 112 153 160 141 152 139 148 172 153 149 104 89 61 44 347 47 55 4 357 24 13 339
248 243 249 260 262 262 262 265 266 256 222 173 170 186 190 183 178 181 179 165 157 158 162 146 144 129 122 132 179 129 130 125 141 141 136 119 86 77 58 61 61 20 39 39 359 0 3 347 351
257 258 254 249 253 254 257 254 251 249 235 201 187 200 193 182 181 181 180 161 155 156 153 144 146 143 149 162 181 159 146 148 130 115 117 107 91 94 62 68 78 38 21 28 19 3 343 342 345
249 247 252 251 246 246 248 250 250 242 231 212 205 215 202 184 187 187 179 157 153 159 153 156 162 156 166 172 189 171 150 133 120 117 113 109 98 97 84 68 76 30 21 39 26 23 9 3 349
247 240 244 247 240 235 236 245 256 263 231 211 220 230 214 201 198 188 175 162 158 158 155 163 160 157 170 167 166 118 101 106 112 116 116 110 108 101 83 78 62 6 42 48 22 43 11 343 333
236 238 237 241 243 233 230 233 241 262 227 216 228 237 232 218 205 188 172 163 154 147 151 162 153 156 164 156 156 130 119 112 104 100 105 107 95 76 77 94 58 17 45 56 45 5 337 307 289
251 260 261 251 239 242 231 233 240 255 232 225 239 245 246 236 205 172 151 144 140 144 160 165 160 157 159 158 164 150 140 125 109 103 98 94 88 71 45 81 87 33 63 56 14 14 332 317 317
242 257 268 276 278 271 257 235 239 257 267 247 234 242 255 256 217 159 147 150 156 169 172 166 159 157 163 158 154 140 130 119 111 103 97 96 90 82 76 45 27 53 29 305 34 22 326 315 338
243 250 262 272 279 278 273 258 245 251 264 267 252 237 240 249 227 164 155 157 160 168 164 165 160 159 161 142 127 116 108 114 118 124 116 106 106 93 72 60 33 21 336 51 19 2 346 337 324
246 250 259 267 271 271 271 270 256 246 244 246 247 241 233 235 227 190 155 144 145 143 137 132 136 137 131 128 135 141 145 146 140 135 123 115 110 112 108 83 59 24 356 26 7 48 349 335 310
249 255 258 259 260 265 267 271 270 267 261 247 249 240 227 226 214 173 147 132 129 125 119 113 111 111 118 125 135 140 132 125 123 119 126 131 117 117 115 101 71 31 358 59 32 12 348 329 345
247 256 261 265 266 261 257 259 264 260 263 256 254 240 204 208 169 135 128 122 119 114 111 110 107 104 105 110 118 123 125 129 131 136 148 162 151 150 130 118 91 360 28 49 15 353 299 339 350
224 238 247 243 241 250 249 249 258 261 263 266 271 125 113 110 118 121 122 121 119 116 114 114 112 109 108 110 110 115 119 125 134 142 151 182 148 131 107 95 88 27 41 303 279 282 275 275 275
227 226 241 258 266 275 285 279 285 304 290 281 295 115 114 118 122 122 123 123 123 122 122 122 120 119 115 109 107 110 123 137 123 85 109 88 63 91 112 108 138 254 282 297 335 305 285 262 249
245 237 238 252 265 275 280 290 292 280 247 223 234 228 195 134 127 124 126 125 126 127 127 127 124 119 115 113 110 104 87 83 89 76 60 91 76 116 112 132 186 246 269 275 280 271 281 274 259
227 247 256 256 264 273 280 284 301 348 349 307 275 266 125 122 121 120 122 124 122 121 116 111 112 112 110 112 118 111 95 92 109 115 73 72 77 66 77 235 226 241 252 252 253 268 272 275 267
226 231 244 263 269 272 274 278 25 0 339 331 301 250 141 133 127 124 124 120 118 117 117 116 113 113 115 113 102 104 107 121 148 129 127 124 122 144 244 251 259 266 267 264 261 266 275 278 279
250 248 243 245 253 261 271 282 5 30 21 15 5 31 117 120 121 123 122 121 122 123 123 121 118 116 112 103 95 97 105 110 118 108 102 115 144 270 293 298 290 283 283 280 281 292 306 315 318
Height
1512 1512 1510 1511 1506 1499 1488 1467 1459 1468 1472 1476 1478 1478 1484 1492 1499 1514 1515 1515 1513 1516 1519 1522 1525 1528 1530 1533 1535 1537 1539 1541 1543 1545 1546 1548 1549 1550 1551 1552 1553 1555 1556 1557 1558 1559 1560 1561 1562
1511 1512 1514 1510 1503 1501 1482 1462 1467 1474 1479 1480 1481 1482 1487 1496 1503 1509 1514 1516 1515 1517 1520 1523 1526 1528 1531 1533 1536 1538 1540 1542 1544 1545 1547 1548 1550 1551 1552 1553 1554 1555 1556 1557 1558 1559 1560 1560 1561
1511 1513 1513 1503 1499 1494 1482 1466 1470 1474 1478 1479 1481 1485 1492 1499 1505 1510 1514 1516 1517 1518 1520 1523 1526 1529 1531 1534 1536 1539 1541 1543 1544 1546 1548 1549 1550 1552 1553 1554 1555 1556 1557 1557 1558 1559 1559 1560 1561
1512 1512 1508 1499 1491 1474 1473 1468 1468 1472 1477 1479 1482 1488 1497 1502 1505 1509 1514 1517 1518 1519 1521 1524 1527 1529 1532 1534 1537 1539 1541 1543 1545 1547 1548 1550 1551 1552 1553 1554 1555 1556 1557 1557 1558 1559 1559 1560 1560
1512 1508 1502 1494 1480 1466 1463 1467 1467 1471 1476 1480 1483 1491 1500 1504 1506 1510 1514 1517 1520 1521 1522 1525 1527 1530 1532 1535 1537 1540 1542 1544 1546 1547 1549 1550 1551 1552 1553 1554 1555 1556 1557 1557 1558 1559 1559 1560 1560
1509 1501 1499 1492 1474 1461 1460 1466 1469 1474 1478 1481 1484 1491 1500 1505 1508 1511 1515 1518 1521 1521 1522 1525 1527 1530 1532 1535 1537 1540 1542 1544 1546 1548 1549 1551 1552 1553 1553 1554 1555 1556 1557 1557 1558 1558 1559 1559 1560
1506 1498 1493 1482 1475 1464 1461 1466 1472 1477 1480 1482 1483 1490 1499 1504 1508 1512 1515 1518 1521 1521 1522 1525 1528 1530 1532 1535 1537 1540 1542 1544 1546 1548 1549 1551 1552 1553 1554 1555 1555 1556 1557 1557 1558 1558 1559 1559 1560
1503 1498 1491 1480 1476 1465 1461 1466 1472 1478 1484 1485 1482 1486 1496 1502 1507 1511 1515 1518 1521 1522 1523 1525 1528 1530 1533 1535 1537 1540 1542 1544 1546 1548 1549 1551 1552 1553 1554 1555 1556 1556 1557 1557 1558 1558 1559 1559 1560
1501 1500 1493 1477 1467 1463 1461 1465 1471 1477 1481 1484 1482 1484 1493 1500 1505 1509 1514 1518 1521 1523 1524 1526 1528 1530 1533 1535 1538 1540 1542 1544 1546 1548 1549 1550 1552 1553 1554 1555 1556 1556 1557 1557 1558 1558 1558 1559 1559
1495 1494 1483 1469 1460 1461 1461 1464 1468 1474 1479 1482 1483 1487 1492 1498 1503 1507 1511 1515 1519 1522 1525 1527 1529 1531 1534 1536 1538 1540 1542 1544 1546 1547 1549 1551 1552 1553 1555 1556 1556 1556 1557 1557 1558 1558 1558 1558 1558
1488 1486 1476 1469 1464 1463 1463 1464 1467 1469 1473 1477 1481 1487 1492 1496 1500 1504 1508 1512 1516 1520 1524 1527 1529 1532 1534 1536 1537 1540 1542 1544 1546 1548 1550 1551 1553 1554 1555 1556 1557 1557 1557 1557 1558 1559 1559 1559 1561
1483 1479 1475 1470 1466 1467 1468 1466 1466 1468 1469 1473 1482 1489 1491 1494 1497 1501 1505 1509 1513 1517 1522 1525 1527 1531 1533 1535 1538 1540 1543 1544 1546 1548 1550 1552 1553 1555 1556 1556 1556 1557 1557 1557 1559 1560 1560 1560 1560
1478 1476 1473 1471 1470 1470 1470 1467 1465 1465 1468 1472 1478 1485 1488 1490 1494 1498 1501 1506 1509 1514 1519 1523 1525 1528 1531 1533 1537 1540 1542 1543 1546 1547 1549 1551 1553 1554 1555 1556 1557 1558 1558 1557 1558 1558 1558 1557 1558
1474 1472 1472 1471 1470 1470 1469 1467 1465 1464 1465 1469 1474 1480 1482 1485 1489 1495 1498 1502 1505 1510 1515 1519 1522 1524 1527 1531 1534 1538 1540 1542 1544 1546 1548 1550 1551 1552 1553 1554 1555 1555 1555 1555 1555 1555 1555 1556 1556
1472 1470 1468 1467 1467 1468 1468 1467 1462 1461 1462 1465 1469 1473 1477 1480 1485 1489 1493 1497 1501 1505 1510 1514 1517 1520 1524 1528 1531 1534 1537 1539 1542 1543 1545 1547 1549 1550 1551 1552 1552 1552 1552 1553 1553 1553 1553 1553 1553
1469 1471 1474 1467 1465 1465 1468 1469 1458 1457 1458 1461 1466 1469 1473 1476 1480 1484 1487 1491 1495 1500 1505 1509 1514 1515 1520 1524 1529 1532 1534 1536 1537 1539 1541 1544 1545 1547 1548 1548 1548 1549 1549 1550 1550 1550 1550 1549 1549
1472 1474 1474 1467 1459 1457 1459 1462 1455 1454 1454 1459 1464 1466 1469 1472 1476 1480 1482 1485 1490 1495 1499 1504 1510 1511 1516 1521 1525 1529 1530 1532 1533 1535 1537 1540 1542 1543 1544 1544 1545 1546 1546 1546 1546 1545 1545 1544 1543
1474 1469 1466 1462 1450 1448 1452 1453 1452 1452 1453 1458 1462 1464 1465 1468 1471 1475 1478 1482 1487 1492 1496 1501 1506 1509 1513 1518 1521 1524 1526 1528 1530 1531 1533 1535 1537 1540 1541 1541 1542 1542 1542 1541 1541 1540 1540 1539 1538
1462 1459 1455 1447 1440 1442 1445 1448 1448 1450 1451 1455 1458 1460 1462 1464 1467 1470 1472 1478 1483 1490 1496 1499 1503 1506 1510 1514 1517 1519 1522 1524 1526 1528 1530 1531 1533 1535 1538 1538 1538 1538 1538 1537 1537 1535 1535 1534 1533
1459 1461 1457 1447 1438 1440 1442 1445 1446 1448 1449 1451 1454 1456 1459 1461 1463 1465 1468 1473 1479 1486 1492 1496 1500 1503 1508 1511 1514 1516 1518 1520 1522 1524 1526 1528 1529 1532 1534 1535 1535 1535 1534 1533 1532 1531 1530 1529 1529
1454 1457 1456 1453 1445 1441 1446 1450 1447 1447 1449 1448 1448 1450 1454 1457 1460 1462 1465 1469 1474 1482 1487 1492 1496 1500 1505 1508 1510 1512 1513 1514 1518 1520 1520 1522 1524 1527 1529 1531 1531 1531 1531 1530 1529 1527 1526 1525 1525
1455 1450 1452 1454 1457 1457 1452 1462 1446 1441 1440 1440 1441 1443 1446 1451 1456 1460 1463 1467 1472 1478 1484 1488 1493 1497 1501 1503 1505 1508 1509 1512 1513 1516 1517 1519 1520 1523 1525 1526 1527 1527 1527 1527 1526 1523 1523 1522 1522
1449 1446 1448 1450 1455 1460 1456 1462 1450 1437 1435 1431 1431 1432 1437 1444 1450 1455 1460 1465 1470 1476 1481 1486 1490 1495 1498 1501 1503 1505 1507 1509 1511 1513 1515 1516 1518 1520 1522 1522 1523 1524 1524 1523 1522 1521 1520 1519 1519
1445 1448 1450 1452 1456 1469 1458 1460 1452 1436 1429 1425 1425 1426 1432 1440 1445 1451 1457 1463 1469 1474 1479 1483 1488 1492 1496 1499 1501 1503 1505 1507 1509 1511 1514 1515 1516 1518 1519 1520 1520 1521 1521 1520 1520 1519 1518 1517 1516
1444 1458 1471 1473 1471 1465 1444 1447 1440 1423 1419 1420 1422 1427 1433 1438 1443 1451 1457 1462 1467 1472 1478 1482 1486 1491 1494 1498 1500 1502 1505 1506 1508 1510 1512 1515 1516 1516 1517 1518 1518 1518 1518 1518 1518 1517 1516 1515 1514
1442 1452 1471 1478 1469 1451 1434 1439 1428 1418 1417 1419 1423 1428 1434 1440 1445 1452 1458 1463 1468 1473 1478 1482 1486 1490 1493 1496 1499 1502 1504 1506 1508 1509 1511 1513 1515 1514 1515 1516 1516 1517 1517 1516 1516 1515 1514 1513 1511
1442 1443 1442 1454 1456 1460 1449 1435 1422 1415 1417 1420 1424 1428 1434 1439 1445 1451 1458 1464 1469 1474 1479 1482 1485 1489 1492 1496 1499 1502 1504 1505 1507 1509 1510 1511 1513 1514 1514 1514 1515 1515 1515 1514 1513 1512 1511 1510 1508
1433 1436 1443 1452 1465 1468 1455 1444 1435 1426 1423 1420 1424 1428 1433 1439 1446 1453 1459 1465 1470 1475 1479 1482 1486 1489 1493 1496 1499 1501 1503 1505 1507 1509 1509 1510 1511 1512 1513 1514 1514 1513 1513 1513 1511 1510 1508 1507 1505
1431 1436 1441 1443 1445 1458 1461 1448 1428 1430 1428 1428 1429 1429 1432 1437 1444 1452 1461 1466 1471 1475 1480 1483 1487 1491 1494 1497 1500 1502 1504 1506 1508 1509 1510 1511 1512 1512 1513 1513 1513 1512 1511 1510 1509 1506 1505 1503 1500
1423 1428 1433 1449 1451 1447 1453 1448 1427 1428 1432 1436 1437 1434 1435 1441 1448 1456 1463 1468 1472 1477 1481 1485 1489 1493 1496 1499 1502 1504 1506 1508 1509 1510 1511 1511 1512 1512 1513 1512 1511 1510 1509 1507 1505 1503 1500 1498 1495